Location: Gradaro
(45.0833°N, 10.8833°E)
Time: 22:00:46
(UTC+00:00)

COSMO-SKYMED 1 - Pass Details

Date: 29 November 2020
Orbit: 621 x 623 km, 97.9° (Epoch: 21 January)

Event Time Altitude Azimuth Distance (km) Brightness Sun altitude
Rises 04:58:35 0° 185° (S) 2,889 6.1 -16.1°
Reaches altitude 10° 05:00:53 10° 193° (SSW) 1,988 5.2 -15.8°
Maximum altitude 05:04:56 39° 262° (W) 944 3.0 -15.1°
Enters shadow 05:07:58 17° 325° (NW) 1,613 4.2 -14.6°
